Welcome to the New NWS' Forecast!
Most changes are behind the scenes, but click here for differences you might notice.
Latest weather observations around

Wenatchee, Pangborn Memorial Airport (KEAT)

Using English Units (Switch to International System of Units)
Date/ Time (PDT) Wind (mph) Vis. (mi) Weather Sky Cond. Temp (°F) Rel. Humidity Wind Chill (°F) Heat Index (°F) Pressure Precip. (in)
Air Dwpt 6 hour Altimeter (inHg) Sea level (inHg) 1 hr 3 hr 6 hr
Max Min
Sep 18 05:55 W 8 10 Clear CLR 45 39     80% 41   30.05 30.05      
Sep 18 04:55 WSW 7 10 Clear CLR 47 40     76% 44   30.04 30.03      
Sep 18 03:55 W 5 10 Clear CLR 46 39     76% 44   30.04 30.03      
Sep 18 02:55 W 8 10 Clear CLR 48 39     71% 44   30.03 30.03      
Sep 18 01:55 W 8 10 Clear CLR 51 40     65%     30.03 30.03      
Sep 18 00:55 NW 8 10 Clear CLR 54 39     57%     30.03 30.03      
Sep 17 23:55 WNW 7 10 Clear CLR 54 37     53%     30.03 30.03      
Sep 17 22:55 Calm 10 Clear CLR 55 36     48%     30.03 30.02      
Sep 17 21:55 Calm 10 Clear CLR 55 37     51%     30.02 30.02      
Sep 17 20:55 E 7 10 Clear CLR 56 37     49%     30.01 30.01      
Sep 17 19:55 E 8 10 Clear CLR 56 39     53%     30 30.01      
Sep 17 18:55 ESE 7 10 Clear CLR 63 36     37%     30 30      
Sep 17 17:55 ESE 7 10 Clear CLR 66 34     30%     30 29.99      
Sep 17 16:55 ESE 7 10 Clear CLR 68 31     25%     30 30      
Sep 17 15:55 5 10 Clear CLR 68 32     26%     30.01 30      
Sep 17 14:55   10 Clear CLR 68 30     24%     30.02 30.02      
Sep 17 13:55 ESE 7 10 Clear CLR 66 34     30%     30.04 30.04      
Sep 17 12:55 5 10 Clear CLR 64 32     30%     30.07 30.06      
Sep 17 11:55 Calm 10 Clear CLR 60 38     44%     30.09 30.09      
Sep 17 10:55 W 7 10 Clear CLR 57 39     51%     30.1 30.1      
Sep 17 09:55 W 7 10 Clear CLR 54 39     57%     30.1 30.1      
Sep 17 08:55 W 6 10 Clear CLR 52 39     61%     30.11 30.11      
Sep 17 07:55 W 6 10 Clear CLR 49 39     69% 46   30.1 30.11      
Sep 17 06:55 NW 6 10 Clear CLR 46 38     73% 43   30.09 30.09      
Sep 17 05:55 NNW 5 10 Clear CLR 46 38     73% 44   30.07 30.07      
Sep 17 04:55 NW 6 10 Clear CLR 48 39     71% 45   30.07 30.06      
Sep 17 03:55 WNW 11 10 Clear CLR 47 40     76% 42   30.05 30.05      
Sep 17 02:55 NNW 11 10 Clear CLR 50 40     68%     30.05 30.05      
Sep 17 01:55 N 8 10 Clear CLR 49 41     74% 45   30.05 30.04      
Sep 17 00:55 NW 16 10 Clear CLR 52 41     66%     30.04 30.03      
Sep 16 23:55 NNW 13 10 Clear CLR 53 40     61%     30.03 30.03      
Sep 16 22:55 NW 13 10 Clear CLR 53 40     61%     30.02 30.02      
Sep 16 21:55 NW 14 10 Clear CLR 54 39     57%     30.01 30.01      
Sep 16 20:55 NNW 11 10 Clear CLR 56 39     53%     29.99 29.99      
Sep 16 19:55 NNW 3 10 Clear CLR 57 39     51%     29.98 29.98      
Sep 16 18:55 W 7 10 Clear CLR 61 36     39%     29.96 29.96      
Sep 16 17:55 W 14 10 Clear CLR 65 32     29%     29.93 29.93      
Sep 16 16:55 WNW 16 10 Mostly Clear FEW075 66 33     29%     29.91 29.91     0
Sep 16 15:55 WNW 13 10 Partly Cloudy FEW070 SCT090 SCT120 66 38     36%     29.9 29.89      
Sep 16 14:55 SSE 10 10 Mostly Cloudy FEW070 BKN090 BKN110 64 39     40%     29.89 29.89      
Sep 16 13:55 SSE 6 10 Mostly Cloudy BKN080 64 38     38%     29.89 29.88   0  
Sep 16 12:55 S 6 10 Mostly Clear FEW065 63 41     45%     29.89 29.88      
Sep 16 11:55 WNW 8 10 Cloudy BKN060 OVC070 56 45     67%     29.9 29.89 0    
Sep 16 10:55 5 10 Cloudy SCT065 OVC095 57 44     62%     29.87 29.87     0
Sep 16 09:55 E 10 10 Cloudy OVC110 56 44     64%     29.86 29.85      
Sep 16 08:55 ENE 5 10 Cloudy SCT085 OVC110 53 45     74%     29.85 29.85 0    
Sep 16 07:55 Calm 10 Clear CLR 52 44     74%     29.85 29.85      
Sep 16 06:55 NE 6 10 Partly Cloudy SCT100 49 42     77% 46   29.85 29.84      
Sep 16 05:55 SE 5 10 Clear CLR 48 42     80% 46   29.84 29.83      
Sep 16 04:55 WSW 8 10 Clear CLR 50 42     74%     29.84 29.83      
Sep 16 03:55 NW 6 10 Cloudy OVC100 53 43     69%     29.83 29.83      
Sep 16 02:55 NW 7 10 Clear CLR 54 43     66%     29.83 29.82      
Sep 16 01:55 NNW 7 10 Clear CLR 55 43     64%     29.83 29.82      
Sep 16 00:55 NNW 10 10 Mostly Cloudy BKN110 56 43     62%     29.83 29.82      
Sep 15 23:55 NW 7 10 Clear CLR 56 43     62%     29.83 29.82      
Sep 15 22:55 NW 10 10 Clear CLR 56 43     62%     29.82 29.82      
Sep 15 21:55 NNW 11 10 Mostly Clear FEW120 59 42     53%     29.82 29.81      
Sep 15 20:55 NW 9 10 Cloudy OVC110 60 42     51%     29.81 29.8      
Sep 15 19:55 NW 11 10 Cloudy SCT080 OVC110 62 41     46%     29.8 29.79      
Sep 15 18:55 SE 3 10 Cloudy FEW090 OVC110 64 41     43%     29.79 29.78      
Sep 15 17:55 ESE 3 10 Partly Cloudy SCT120 66 39     37%     29.79 29.78      
Sep 15 16:55 ESE 6 10 Clear CLR 65 41     42%     29.79 29.78      
Sep 15 15:55 ESE 3 10 Clear CLR 65 42     43%     29.79 29.78      
Sep 15 14:55 ESE 6 10 Clear CLR 65 40     40%     29.79 29.78      
Sep 15 13:55 5 10 Clear CLR 65 40     40%     29.79 29.78      
Sep 15 12:55 SE 7 10 Clear CLR 64 38     38%     29.81 29.8      
Sep 15 11:55 Calm 10 Clear CLR 61 41     48%     29.82 29.82      
Sep 15 10:55 W 7 10 Clear CLR 59 41     51%     29.84 29.83      
Sep 15 09:55 W 8 10 Clear CLR 59 41     51%     29.85 29.84      
Sep 15 08:55 W 7 10 Clear CLR 55 41     59%     29.85 29.85      
Sep 15 07:55 W 5 10 Clear CLR 53 41     63%     29.86 29.85      
Sep 15 06:55 W 5 10 Clear CLR 50 41     71%     29.86 29.85      
Sep 15 05:55 WSW 3 10 Clear CLR 52 41     66%     29.85 29.84      
Sep 15 04:55 WSW 5 10 Clear CLR 51 41     68%     29.85 29.84      
Sep 15 03:55 W 7 10 Clear CLR 52 40     63%     29.85 29.84      
Sep 15 02:55 NNW 7 10 Clear CLR 55 40     57%     29.85 29.84      
Sep 15 01:55 NNW 8 10 Clear CLR 55 40     57%     29.85 29.84      
Sep 15 00:55 NNW 6 10 Clear CLR 56 41     57%     29.86 29.85      
Sep 14 23:55 NNW 7 10 Clear CLR 57 41     55%     29.86 29.85      
Sep 14 22:55 NW 8 10 Clear CLR 60 41     49%     29.86 29.85      
Sep 14 21:55 NNW 9 10 Clear CLR 61 40     46%     29.86 29.85      
Sep 14 20:55 NW 7 10 Clear CLR 62 40     44%     29.85 29.85      
Sep 14 19:55 NNW 8 10 Mostly Cloudy BKN090 65 40     40%     29.84 29.84      
Sep 14 18:55 Calm 10 Cloudy OVC090 68 39     35%     29.84 29.83      
Sep 14 17:55 E 3 10 Cloudy BKN090 OVC100 67 44     44%     29.84 29.83      
Sep 14 16:55 E 3 10 Mostly Cloudy SCT090 BKN110 68 40     36%     29.85 29.84      
Sep 14 15:55 ESE 5 10 Mostly Cloudy BKN100 69 40     35%     29.86 29.85      
Sep 14 14:55   10 Clear CLR 68 39     35%     29.87 29.87      
Sep 14 13:55 E 8 10 Clear CLR 67 40     37%     29.9 29.89      
Sep 14 12:55 ESE 9 10 Clear CLR 65 41     42%     29.92 29.91      
Sep 14 11:55 SE 9 10 Mostly Clear FEW065 62 41     46%     29.94 29.93      
Sep 14 10:55 E 3 10 Partly Cloudy SCT070 60 40     47%     29.96 29.96      
Sep 14 09:55 WSW 3 10 Clear CLR 56 40     55%     29.98 29.98      
Sep 14 08:55 Calm 10 Mostly Clear FEW075 53 41     63%     29.99 29.98      
Sep 14 07:55 Calm 10 Clear CLR 50 40     68%     29.99 29.99      
Sep 14 06:55 E 3 10 Cloudy OVC080 47 41     80% 46   29.98 29.98      
Sep 14 05:55 Calm 10 Cloudy OVC075 48 40     73%     29.98 29.98      
Notice The following observation data may not be complete
May 13 19:55 NNW 3 10 Clear CLR   41      %     29.89 29.87      
May 13 16:55 S 8 10 Clear CLR 85        %     29.89 29.87      
May 13 15:55 W 7 10 Clear CLR 86        %     29.9 29.87      
May 13 08:55 WNW 14 10 Clear CLR 63 42     46%     29.97 29.95      
May 12 19:55 Calm 10 Clear CLR 79 35     20%   78 29.88 29.86      
May 12 13:55 WNW 14 10 Clear CLR 81 34     18%   80 29.96 29.93      
May 11 21:55 E 8 10 Cloudy OVC100 60 51     72%     30.1 30.09      
May 11 10:55   10 Cloudy BKN075 OVC095 63 40     43%     30.08 30.07     0
Jun 12 00:55 W 13 10 Clear CLR 60 43     53%     29.85 29.84      
Jun 11 21:55 WNW 14 10 Clear CLR 65 42     43%     29.86 29.85      
Jun 11 19:55 WNW 7 10 Clear   72 37     28%   70 29.85 29.83      
Jun 11 08:55   10 Clear CLR 60 39     46%     29.96 29.95      
Jun 10 01:55 NW 11 10 Clear CLR 52 36     54%     29.74 29.74      
Jun 10 00:55 NW 14 10 Clear CLR 53 35     50%     29.74 29.73      
Jun 09 22:55 WNW 14 10 Clear CLR 57 35     44%     29.73 29.72     0
Jun 09 20:55 WNW 11 10 Clear CLR 61 35     38%     29.69 29.68      
Jun 09 10:55 6 10 Clear CLR 60 35     39%     29.8 29.79      
Jun 08 11:55   8 Rain BKN055 BKN075 OVC090 64 57     78%     29.63 29.61 0    
Jun 08 07:55 S 10 10 Clear CLR 71 51     49%   70 29.57 29.54      
Jun 05 19:55 SE 7 10 Clear   71 35     27%   69 30.06 30.05